| time (UTC) | temp C | wind direction | speed KPH | gust KPH | rain 1hr cm | rain 24hr cm | rain mn cm | humidity % | barometer mb |
| 20260507052835 | 6 | 225 | 0.0 | 0.0 | 0.00 | 0.00 | 0.00 | 76 | 996.7 |
| 20260507052324 | 6 | 11 | 0.0 | 0.0 | 0.00 | 0.00 | 0.00 | 76 | 996.8 |
| 20260507051822 | 6 | 225 | 0.0 | 0.0 | 0.00 | 0.00 | 0.00 | 76 | 996.7 |
| 20260507051414 | 6 | 0 | 0.0 | 0.0 | 0.00 | 0.00 | 0.00 | 76 | 996.9 |
| 20260507051319 | 6 | 0 | 0.0 | 0.0 | 0.00 | 0.00 | 0.00 | 76 | 996.9 |
| 20260507050818 | 6 | 225 | 0.0 | 0.0 | 0.00 | 0.00 | 0.00 | 75 | 996.9 |
| 20260507050315 | 6 | 180 | 0.0 | 0.0 | 0.00 | 0.00 | 0.00 | 76 | 996.8 |
| 20260507045813 | 6 | 225 | 0.0 | 0.0 | 0.00 | 0.00 | 0.00 | 77 | 996.9 |
| 20260507044849 | 6 | 180 | 0.0 | 0.0 | 0.00 | 0.00 | 0.00 | 77 | 996.9 |
| 20260507044809 | 6 | 180 | 0.0 | 0.0 | 0.00 | 0.00 | 0.00 | 77 | 996.9 |
| 20260507044306 | 6 | 90 | 0.0 | 0.0 | 0.00 | 0.00 | 0.00 | 78 | 996.9 |
| 20260507043805 | 6 | 112 | 0.0 | 0.0 | 0.00 | 0.00 | 0.00 | 77 | 997.0 |
| 20260507043302 | 6 | 90 | 0.0 | 1.6 | 0.00 | 0.00 | 0.00 | 76 | 997.1 |
| 20260507042845 | 6 | 0 | 0.0 | 0.0 | 0.00 | 0.00 | 0.00 | 76 | 997.1 |
| 20260507042800 | 6 | 0 | 0.0 | 0.0 | 0.00 | 0.00 | 0.00 | 76 | 997.1 |
| 20260507042258 | 6 | 180 | 0.0 | 0.0 | 0.00 | 0.00 | 0.00 | 75 | 997.2 |
| 20260507041756 | 6 | 225 | 0.0 | 0.0 | 0.00 | 0.00 | 0.00 | 75 | 997.3 |
| 20260507041253 | 6 | 270 | 0.0 | 0.0 | 0.00 | 0.00 | 0.00 | 75 | 997.3 |
| 20260507040752 | 6 | 90 | 0.0 | 0.0 | 0.00 | 0.00 | 0.00 | 75 | 997.4 |
| 20260507040343 | 6 | 180 | 0.0 | 0.0 | 0.00 | 0.00 | 0.00 | 77 | 997.2 |
| 20260507040249 | 6 | 180 | 0.0 | 0.0 | 0.00 | 0.00 | 0.00 | 77 | 997.2 |
| 20260507035747 | 6 | 180 | 0.0 | 0.0 | 0.00 | 0.00 | 0.00 | 74 | 997.2 |
| 20260507035245 | 6 | 90 | 0.0 | 0.0 | 0.00 | 0.00 | 0.00 | 75 | 997.5 |
| 20260507034743 | 6 | 45 | 0.0 | 0.0 | 0.00 | 0.00 | 0.00 | 74 | 997.6 |
| 20260507034240 | 6 | 225 | 0.0 | 0.0 | 0.00 | 0.00 | 0.00 | 74 | 997.3 |
| 20260507033739 | 7 | 225 | 0.0 | 0.0 | 0.00 | 0.00 | 0.00 | 74 | 997.4 |
| 20260507033236 | 7 | 135 | 0.0 | 1.6 | 0.00 | 0.00 | 0.00 | 72 | 997.4 |
| 20260507032833 | 7 | 180 | 0.0 | 1.6 | 0.00 | 0.00 | 0.00 | 74 | 997.3 |
| 20260507032734 | 7 | 180 | 0.0 | 1.6 | 0.00 | 0.00 | 0.00 | 74 | 997.3 |
| 20260507032232 | 7 | 180 | 0.0 | 0.0 | 0.00 | 0.00 | 0.00 | 74 | 997.5 |
| 20260507031820 | 7 | 90 | 0.0 | 0.0 | 0.00 | 0.00 | 0.00 | 74 | 997.4 |
| 20260507031730 | 7 | 90 | 0.0 | 0.0 | 0.00 | 0.00 | 0.00 | 74 | 997.4 |
| 20260507031611 | 7 | 135 | 0.0 | 0.0 | 0.00 | 0.00 | 0.00 | 75 | 997.4 |
| 20260507031539 | 7 | 135 | 0.0 | 0.0 | 0.00 | 0.00 | 0.00 | 75 | 997.4 |
| 20260507031038 | 7 | 258 | 0.0 | 0.0 | 0.00 | 0.00 | 0.00 | 75 | 997.5 |
| 20260507030628 | 7 | 180 | 0.0 | 0.0 | 0.00 | 0.00 | 0.00 | 74 | 997.4 |
| 20260507030535 | 7 | 180 | 0.0 | 0.0 | 0.00 | 0.00 | 0.00 | 74 | 997.4 |
| 20260507030114 | 7 | 315 | 0.0 | 0.0 | 0.00 | 0.00 | 0.00 | 75 | 997.6 |
| 20260507030033 | 7 | 315 | 0.0 | 0.0 | 0.00 | 0.00 | 0.00 | 75 | 997.6 |
| 20260507025531 | 7 | 90 | 0.0 | 1.6 | 0.00 | 0.00 | 0.00 | 75 | 997.5 |
| 20260507025121 | 7 | 337 | 0.0 | 0.0 | 0.00 | 0.00 | 0.00 | 77 | 997.5 |
| 20260507025029 | 7 | 337 | 0.0 | 0.0 | 0.00 | 0.00 | 0.00 | 77 | 997.5 |
| 20260507024526 | 7 | 0 | 0.0 | 1.6 | 0.00 | 0.00 | 0.00 | 74 | 997.6 |
| 20260507024025 | 7 | 90 | 0.0 | 0.0 | 0.00 | 0.00 | 0.00 | 72 | 997.5 |
| 20260507023608 | 7 | 135 | 0.0 | 1.6 | 0.00 | 0.00 | 0.00 | 73 | 997.5 |
| 20260507023522 | 7 | 135 | 0.0 | 1.6 | 0.00 | 0.00 | 0.00 | 73 | 997.5 |
| 20260507023056 | 7 | 0 | 1.6 | 1.6 | 0.00 | 0.00 | 0.00 | 78 | 997.6 |
| 20260507023020 | 7 | 0 | 1.6 | 1.6 | 0.00 | 0.00 | 0.00 | 78 | 997.6 |
| 20260507022624 | 7 | 90 | 0.0 | 0.0 | 0.00 | 0.00 | 0.00 | 73 | 997.5 |
| 20260507022159 | 7 | 180 | 0.0 | 0.0 | 0.00 | 0.00 | 0.00 | 74 | 997.7 |
| 20260507022122 | 7 | 180 | 0.0 | 0.0 | 0.00 | 0.00 | 0.00 | 74 | 997.7 |
| 20260507021619 | 7 | 90 | 0.0 | 0.0 | 0.00 | 0.00 | 0.00 | 72 | 997.6 |
| 20260507021153 | 7 | 270 | 0.0 | 1.6 | 0.00 | 0.00 | 0.00 | 71 | 997.6 |
| 20260507021118 | 7 | 270 | 0.0 | 1.6 | 0.00 | 0.00 | 0.00 | 71 | 997.6 |
| 20260507020615 | 7 | 157 | 0.0 | 1.6 | 0.00 | 0.00 | 0.00 | 71 | 997.8 |
| 20260507020149 | 7 | 90 | 0.0 | 0.0 | 0.00 | 0.00 | 0.00 | 71 | 997.7 |
| 20260507020113 | 7 | 90 | 0.0 | 0.0 | 0.00 | 0.00 | 0.00 | 71 | 997.7 |
| 20260507015109 | 7 | 180 | 0.0 | 1.6 | 0.00 | 0.00 | 0.00 | 75 | 997.7 |
| 20260507014606 | 7 | 270 | 0.0 | 0.0 | 0.00 | 0.00 | 0.00 | 70 | 997.9 |
| 20260507014150 | 7 | 0 | 0.0 | 0.0 | 0.00 | 0.00 | 0.00 | 70 | 998.1 |
| 20260507014104 | 7 | 0 | 0.0 | 0.0 | 0.00 | 0.00 | 0.00 | 70 | 998.1 |
| 20260507013602 | 8 | 270 | 0.0 | 0.0 | 0.00 | 0.00 | 0.00 | 70 | 997.8 |
| 20260507013142 | 8 | 135 | 0.0 | 1.6 | 0.00 | 0.00 | 0.00 | 70 | 997.9 |
| 20260507013100 | 8 | 135 | 0.0 | 1.6 | 0.00 | 0.00 | 0.00 | 70 | 997.9 |
| 20260507012557 | 8 | 225 | 0.0 | 0.0 | 0.00 | 0.00 | 0.00 | 68 | 997.9 |
| 20260507012056 | 8 | 225 | 0.0 | 0.0 | 0.00 | 0.00 | 0.00 | 70 | 997.8 |
| 20260507011553 | 8 | 225 | 0.0 | 0.0 | 0.00 | 0.00 | 0.00 | 69 | 998.0 |
| 20260507011051 | 8 | 135 | 0.0 | 0.0 | 0.00 | 0.00 | 0.00 | 69 | 998.1 |
| 20260507010549 | 8 | 180 | 0.0 | 0.0 | 0.00 | 0.00 | 0.00 | 69 | 998.1 |
| 20260507010047 | 8 | 135 | 0.0 | 0.0 | 0.00 | 0.00 | 0.00 | 70 | 998.1 |
| 20260507005043 | 8 | 180 | 0.0 | 1.6 | 0.00 | 0.00 | 0.00 | 68 | 998.1 |
| 20260507004540 | 8 | 270 | 0.0 | 0.0 | 0.00 | 0.00 | 0.00 | 69 | 998.2 |
| 20260507004112 | 8 | 225 | 1.6 | 1.6 | 0.00 | 0.00 | 0.00 | 69 | 998.2 |
| 20260507004039 | 8 | 225 | 1.6 | 1.6 | 0.00 | 0.00 | 0.00 | 69 | 998.2 |
| 20260507003536 | 8 | 135 | 0.0 | 0.0 | 0.00 | 0.00 | 0.00 | 69 | 998.2 |
| 20260507003034 | 8 | 135 | 0.0 | 0.0 | 0.00 | 0.00 | 0.00 | 68 | 998.4 |
| 20260507002030 | 8 | 135 | 0.0 | 1.6 | 0.00 | 0.00 | 0.00 | 69 | 998.3 |
| 20260507001527 | 8 | 90 | 0.0 | 1.6 | 0.00 | 0.00 | 0.00 | 66 | 998.3 |
| 20260507001025 | 8 | 180 | 0.0 | 3.2 | 0.00 | 0.00 | 0.00 | 67 | 998.4 |
| 20260507000523 | 8 | 225 | 0.0 | 1.6 | 0.00 | 0.00 | 0.00 | 67 | 998.3 |
| 20260507000055 | 8 | 135 | 0.0 | 1.6 | 0.00 | 0.00 | 0.00 | 65 | 998.3 |
| 20260507000022 | 8 | 135 | 0.0 | 1.6 | 0.00 | 0.00 | 0.00 | 65 | 998.3 |
| 20260506235518 | 8 | 225 | 0.0 | 1.6 | 0.00 | 0.00 | 0.00 | 66 | 998.3 |
| 20260506235017 | 8 | 225 | 1.6 | 3.2 | 0.00 | 0.00 | 0.00 | 64 | 998.2 |
| 20260506234514 | 9 | 225 | 0.0 | 1.6 | 0.00 | 0.00 | 0.00 | 65 | 998.3 |
| 20260506234046 | 9 | 270 | 0.0 | 1.6 | 0.00 | 0.00 | 0.00 | 65 | 998.3 |
| 20260506234012 | 9 | 270 | 0.0 | 1.6 | 0.00 | 0.00 | 0.00 | 65 | 998.3 |
| 20260506233509 | 9 | 270 | 1.6 | 1.6 | 0.00 | 0.00 | 0.00 | 65 | 998.3 |
| 20260506233009 | 9 | 270 | 0.0 | 0.0 | 0.00 | 0.00 | 0.00 | 64 | 998.4 |
| 20260506232505 | 9 | 270 | 0.0 | 1.6 | 0.00 | 0.00 | 0.00 | 64 | 998.3 |
| 20260506232003 | 9 | 225 | 0.0 | 0.0 | 0.00 | 0.00 | 0.00 | 65 | 998.3 |
| 20260506231501 | 10 | 225 | 0.0 | 0.0 | 0.00 | 0.00 | 0.00 | 65 | 998.4 |
| 20260506231047 | 10 | 315 | 0.0 | 1.6 | 0.00 | 0.00 | 0.00 | 66 | 998.4 |
| 20260506230959 | 10 | 315 | 0.0 | 1.6 | 0.00 | 0.00 | 0.00 | 66 | 998.4 |
| 20260506230456 | 10 | 90 | 0.0 | 3.2 | 0.00 | 0.00 | 0.00 | 70 | 998.4 |
| 20260506225955 | 10 | 33 | 0.0 | 4.8 | 0.00 | 0.00 | 0.00 | 66 | 998.4 |
| 20260506225452 | 10 | 112 | 3.2 | 4.8 | 0.00 | 0.00 | 0.00 | 64 | 998.5 |
| 20260506225022 | 9 | 225 | 0.0 | 0.0 | 0.00 | 0.00 | 0.00 | 66 | 998.4 |
| 20260506224950 | 9 | 225 | 0.0 | 0.0 | 0.00 | 0.00 | 0.00 | 66 | 998.4 |
| 20260506224448 | 10 | 225 | 0.0 | 0.0 | 0.00 | 0.00 | 0.00 | 64 | 998.4 |
| 20260506223946 | 10 | 225 | 0.0 | 0.0 | 0.00 | 0.00 | 0.00 | 62 | 998.7 |
| 20260506223518 | 10 | 22 | 0.0 | 1.6 | 0.00 | 0.00 | 0.00 | 62 | 998.5 |
| 20260506223443 | 10 | 22 | 0.0 | 1.6 | 0.00 | 0.00 | 0.00 | 62 | 998.5 |
| 20260506223014 | 10 | 225 | 0.0 | 1.6 | 0.00 | 0.00 | 0.00 | 62 | 998.5 |
| 20260506222942 | 10 | 225 | 0.0 | 1.6 | 0.00 | 0.00 | 0.00 | 62 | 998.5 |
| 20260506222439 | 10 | 315 | 0.0 | 0.0 | 0.00 | 0.00 | 0.00 | 63 | 998.6 |
| 20260506222018 | 10 | 135 | 0.0 | 1.6 | 0.00 | 0.00 | 0.00 | 64 | 998.6 |
| 20260506221937 | 10 | 135 | 0.0 | 1.6 | 0.00 | 0.00 | 0.00 | 64 | 998.6 |
| 20260506221435 | 10 | 135 | 0.0 | 1.6 | 0.00 | 0.00 | 0.00 | 61 | 998.5 |
| 20260506221018 | 10 | 0 | 0.0 | 0.0 | 0.00 | 0.00 | 0.00 | 63 | 998.7 |
| 20260506220933 | 10 | 0 | 0.0 | 0.0 | 0.00 | 0.00 | 0.00 | 63 | 998.7 |
| 20260506220430 | 10 | 135 | 0.0 | 0.0 | 0.00 | 0.00 | 0.00 | 60 | 998.7 |
| 20260506220030 | 10 | 135 | 1.6 | 1.6 | 0.00 | 0.00 | 0.00 | 60 | 998.7 |
| 20260506215929 | 10 | 135 | 1.6 | 1.6 | 0.00 | 0.00 | 0.00 | 60 | 998.7 |
| 20260506215426 | 10 | 135 | 0.0 | 1.6 | 0.00 | 0.00 | 0.00 | 60 | 998.8 |
| 20260506215013 | 10 | 135 | 0.0 | 0.0 | 0.00 | 0.00 | 0.00 | 60 | 998.7 |
| 20260506214924 | 10 | 135 | 0.0 | 0.0 | 0.00 | 0.00 | 0.00 | 60 | 998.7 |
| 20260506214422 | 10 | 135 | 0.0 | 1.6 | 0.00 | 0.00 | 0.00 | 61 | 998.8 |
| 20260506214004 | 10 | 270 | 0.0 | 1.6 | 0.00 | 0.00 | 0.00 | 60 | 999.0 |
| 20260506213920 | 10 | 270 | 0.0 | 1.6 | 0.00 | 0.00 | 0.00 | 60 | 999.0 |
| 20260506213451 | 10 | 315 | 0.0 | 1.6 | 0.00 | 0.00 | 0.00 | 59 | 998.9 |
| 20260506213417 | 10 | 315 | 0.0 | 1.6 | 0.00 | 0.00 | 0.00 | 59 | 998.9 |
| 20260506213012 | 10 | 90 | 0.0 | 1.6 | 0.00 | 0.00 | 0.00 | 60 | 998.8 |
| 20260506212916 | 10 | 90 | 0.0 | 1.6 | 0.00 | 0.00 | 0.00 | 60 | 998.8 |
| 20260506212451 | 10 | 90 | 0.0 | 1.6 | 0.00 | 0.00 | 0.00 | 59 | 998.9 |
| 20260506212413 | 10 | 90 | 0.0 | 1.6 | 0.00 | 0.00 | 0.00 | 59 | 998.9 |
| 20260506211952 | 10 | 90 | 0.0 | 1.6 | 0.00 | 0.00 | 0.00 | 59 | 998.8 |
| 20260506211911 | 10 | 90 | 0.0 | 1.6 | 0.00 | 0.00 | 0.00 | 59 | 998.8 |
| 20260506211408 | 11 | 90 | 0.0 | 0.0 | 0.00 | 0.00 | 0.00 | 57 | 998.8 |
| 20260506210943 | 11 | 135 | 0.0 | 1.6 | 0.00 | 0.00 | 0.00 | 57 | 998.7 |
| 20260506210907 | 11 | 135 | 0.0 | 1.6 | 0.00 | 0.00 | 0.00 | 57 | 998.7 |
| 20260506210509 | 11 | 90 | 0.0 | 0.0 | 0.00 | 0.00 | 0.00 | 57 | 998.8 |
| 20260506210404 | 11 | 90 | 0.0 | 0.0 | 0.00 | 0.00 | 0.00 | 57 | 998.8 |
| 20260506210001 | 11 | 0 | 0.0 | 0.0 | 0.00 | 0.00 | 0.00 | 56 | 998.7 |
| 20260506205903 | 11 | 0 | 0.0 | 0.0 | 0.00 | 0.00 | 0.00 | 56 | 998.7 |
| 20260506205400 | 11 | 135 | 0.0 | 3.2 | 0.00 | 0.00 | 0.00 | 57 | 998.7 |
| 20260506204939 | 11 | 112 | 1.6 | 3.2 | 0.00 | 0.00 | 0.00 | 56 | 998.6 |
| 20260506204858 | 11 | 112 | 1.6 | 3.2 | 0.00 | 0.00 | 0.00 | 56 | 998.6 |
| 20260506204440 | 11 | 135 | 3.2 | 3.2 | 0.00 | 0.00 | 0.00 | 57 | 998.5 |
| 20260506204355 | 11 | 135 | 3.2 | 3.2 | 0.00 | 0.00 | 0.00 | 57 | 998.5 |
| 20260506203947 | 11 | 180 | 0.0 | 3.2 | 0.00 | 0.00 | 0.00 | 56 | 998.6 |
| 20260506203854 | 11 | 180 | 0.0 | 3.2 | 0.00 | 0.00 | 0.00 | 56 | 998.6 |
| 20260506203351 | 12 | 45 | 1.6 | 3.2 | 0.00 | 0.00 | 0.00 | 56 | 998.6 |
| 20260506202950 | 12 | 123 | 3.2 | 3.2 | 0.00 | 0.00 | 0.00 | 56 | 998.5 |
| 20260506202849 | 12 | 123 | 3.2 | 3.2 | 0.00 | 0.00 | 0.00 | 56 | 998.5 |
| 20260506202347 | 12 | 292 | 1.6 | 3.2 | 0.00 | 0.00 | 0.00 | 55 | 998.4 |
| 20260506201924 | 12 | 123 | 1.6 | 8.0 | 0.00 | 0.00 | 0.00 | 55 | 998.3 |
| 20260506201845 | 12 | 123 | 1.6 | 8.0 | 0.00 | 0.00 | 0.00 | 55 | 998.3 |
| 20260506201414 | 12 | 292 | 3.2 | 6.4 | 0.00 | 0.00 | 0.00 | 54 | 998.5 |
| 20260506201342 | 12 | 292 | 3.2 | 6.4 | 0.00 | 0.00 | 0.00 | 54 | 998.5 |
| 20260506200927 | 12 | 90 | 3.2 | 4.8 | 0.00 | 0.00 | 0.00 | 54 | 998.3 |
| 20260506200841 | 12 | 90 | 3.2 | 4.8 | 0.00 | 0.00 | 0.00 | 54 | 998.3 |
| 20260506200339 | 12 | 281 | 1.6 | 4.8 | 0.00 | 0.00 | 0.00 | 53 | 998.3 |
| 20260506195836 | 12 | 78 | 3.2 | 6.4 | 0.00 | 0.00 | 0.00 | 52 | 998.3 |
| 20260506195334 | 13 | 135 | 4.8 | 9.7 | 0.00 | 0.00 | 0.00 | 51 | 998.1 |
| 20260506194904 | 13 | 225 | 3.2 | 9.7 | 0.00 | 0.00 | 0.00 | 50 | 998.2 |
| 20260506194832 | 13 | 225 | 3.2 | 9.7 | 0.00 | 0.00 | 0.00 | 50 | 998.2 |
| 20260506193828 | 13 | 11 | 0.0 | 4.8 | 0.00 | 0.00 | 0.00 | 49 | 998.0 |
| 20260506193325 | 13 | 247 | 3.2 | 4.8 | 0.00 | 0.00 | 0.00 | 46 | 998.1 |
| 20260506192902 | 13 | 247 | 0.0 | 9.7 | 0.00 | 0.00 | 0.00 | 47 | 998.0 |
| 20260506192823 | 13 | 247 | 0.0 | 9.7 | 0.00 | 0.00 | 0.00 | 47 | 998.0 |
| 20260506192321 | 14 | 292 | 11.3 | 11.3 | 0.00 | 0.00 | 0.00 | 44 | 998.1 |
| 20260506191819 | 14 | 292 | 9.7 | 11.3 | 0.00 | 0.00 | 0.00 | 41 | 998.0 |
| 20260506191421 | 14 | 90 | 3.2 | 9.7 | 0.00 | 0.00 | 0.00 | 41 | 997.9 |
| 20260506191316 | 14 | 90 | 3.2 | 9.7 | 0.00 | 0.00 | 0.00 | 41 | 997.9 |
| 20260506190815 | 15 | 270 | 3.2 | 14.5 | 0.00 | 0.00 | 0.00 | 40 | 997.9 |
| 20260506190312 | 15 | 225 | 6.4 | 14.5 | 0.00 | 0.00 | 0.00 | 39 | 998.0 |
| 20260506185855 | 15 | 247 | 4.8 | 14.5 | 0.00 | 0.00 | 0.00 | 39 | 997.8 |
| 20260506185810 | 15 | 247 | 4.8 | 14.5 | 0.00 | 0.00 | 0.00 | 39 | 997.8 |
| 20260506185342 | 15 | 78 | 3.2 | 11.3 | 0.00 | 0.00 | 0.00 | 37 | 997.7 |
| 20260506185308 | 15 | 78 | 3.2 | 11.3 | 0.00 | 0.00 | 0.00 | 37 | 997.7 |
| 20260506184806 | 15 | 90 | 4.8 | 12.9 | 0.00 | 0.00 | 0.00 | 36 | 997.5 |
| 20260506184354 | 16 | 67 | 12.9 | 14.5 | 0.00 | 0.00 | 0.00 | 32 | 997.7 |
| 20260506184303 | 16 | 67 | 12.9 | 14.5 | 0.00 | 0.00 | 0.00 | 32 | 997.7 |
| 20260506183834 | 16 | 90 | 1.6 | 12.9 | 0.00 | 0.00 | 0.00 | 35 | 997.4 |
| 20260506183802 | 16 | 90 | 1.6 | 12.9 | 0.00 | 0.00 | 0.00 | 35 | 997.4 |
| 20260506183333 | 16 | 292 | 1.6 | 12.9 | 0.00 | 0.00 | 0.00 | 36 | 997.5 |
| 20260506183259 | 16 | 292 | 1.6 | 12.9 | 0.00 | 0.00 | 0.00 | 36 | 997.5 |
| 20260506182843 | 16 | 157 | 4.8 | 8.0 | 0.00 | 0.00 | 0.00 | 36 | 997.4 |
| 20260506182757 | 16 | 157 | 4.8 | 8.0 | 0.00 | 0.00 | 0.00 | 36 | 997.4 |
| 20260506182255 | 16 | 0 | 4.8 | 9.7 | 0.00 | 0.00 | 0.00 | 35 | 997.5 |
| 20260506181330 | 17 | 337 | 6.4 | 11.3 | 0.00 | 0.00 | 0.00 | 32 | 997.4 |
| 20260506181250 | 17 | 337 | 6.4 | 11.3 | 0.00 | 0.00 | 0.00 | 32 | 997.4 |
| 20260506180749 | 17 | 292 | 3.2 | 14.5 | 0.00 | 0.00 | 0.00 | 31 | 997.4 |
| 20260506180246 | 17 | 303 | 6.4 | 16.1 | 0.00 | 0.00 | 0.00 | 31 | 997.4 |
| 20260506175822 | 17 | 123 | 3.2 | 12.9 | 0.00 | 0.00 | 0.00 | 30 | 997.5 |
| 20260506175744 | 17 | 123 | 3.2 | 12.9 | 0.00 | 0.00 | 0.00 | 30 | 997.5 |
| 20260506175241 | 17 | 90 | 8.0 | 11.3 | 0.00 | 0.00 | 0.00 | 30 | 997.3 |
| 20260506174740 | 17 | 135 | 4.8 | 12.9 | 0.00 | 0.00 | 0.00 | 28 | 997.7 |
| 20260506174329 | 17 | 123 | 3.2 | 12.9 | 0.00 | 0.00 | 0.00 | 28 | 997.8 |
| 20260506174237 | 17 | 123 | 3.2 | 12.9 | 0.00 | 0.00 | 0.00 | 28 | 997.8 |
| 20260506173735 | 18 | 292 | 4.8 | 16.1 | 0.00 | 0.00 | 0.00 | 29 | 997.6 |
| 20260506172731 | 18 | 157 | 4.8 | 16.1 | 0.00 | 0.00 | 0.00 | 28 | 997.5 |
| 20260506172228 | 18 | 45 | 4.8 | 12.9 | 0.00 | 0.00 | 0.00 | 29 | 997.6 |
| 20260506171727 | 18 | 0 | 11.3 | 12.9 | 0.00 | 0.00 | 0.00 | 28 | 997.7 |
| 20260506171302 | 18 | 258 | 4.8 | 16.1 | 0.00 | 0.00 | 0.00 | 27 | 997.6 |
| 20260506171224 | 18 | 258 | 4.8 | 16.1 | 0.00 | 0.00 | 0.00 | 27 | 997.6 |
| 20260506170722 | 18 | 135 | 4.8 | 14.5 | 0.00 | 0.00 | 0.00 | 27 | 997.5 |
| 20260506170220 | 18 | 56 | 8.0 | 12.9 | 0.00 | 0.00 | 0.00 | 29 | 997.6 |
| 20260506165749 | 18 | 337 | 14.5 | 19.3 | 0.00 | 0.00 | 0.00 | 31 | 997.6 |
| 20260506165718 | 18 | 337 | 14.5 | 19.3 | 0.00 | 0.00 | 0.00 | 31 | 997.6 |
| 20260506165215 | 17 | 0 | 11.3 | 16.1 | 0.00 | 0.00 | 0.00 | 30 | 997.6 |
| 20260506164714 | 18 | 270 | 6.4 | 12.9 | 0.00 | 0.00 | 0.00 | 31 | 997.7 |
| 20260506164211 | 18 | 67 | 6.4 | 17.7 | 0.00 | 0.00 | 0.00 | 30 | 997.8 |
| 20260506163745 | 19 | 67 | 9.7 | 17.7 | 0.00 | 0.00 | 0.00 | 28 | 997.5 |
| 20260506163709 | 19 | 67 | 9.7 | 17.7 | 0.00 | 0.00 | 0.00 | 28 | 997.5 |
| 20260506163207 | 19 | 292 | 6.4 | 14.5 | 0.00 | 0.00 | 0.00 | 28 | 997.5 |
| 20260506162705 | 19 | 67 | 4.8 | 14.5 | 0.00 | 0.00 | 0.00 | 28 | 997.6 |
| 20260506162202 | 18 | 292 | 11.3 | 12.9 | 0.00 | 0.00 | 0.00 | 30 | 997.6 |
| 20260506161701 | 18 | 90 | 4.8 | 11.3 | 0.00 | 0.00 | 0.00 | 30 | 997.6 |
| 20260506161158 | 18 | 112 | 4.8 | 14.5 | 0.00 | 0.00 | 0.00 | 30 | 997.7 |
| 20260506160727 | 18 | 45 | 4.8 | 19.3 | 0.00 | 0.00 | 0.00 | 30 | 997.7 |
| 20260506160656 | 18 | 45 | 4.8 | 19.3 | 0.00 | 0.00 | 0.00 | 30 | 997.7 |
| 20260506160154 | 18 | 0 | 3.2 | 14.5 | 0.00 | 0.00 | 0.00 | 31 | 997.6 |
| 20260506155723 | 18 | 270 | 4.8 | 11.3 | 0.00 | 0.00 | 0.00 | 31 | 997.6 |
| 20260506155652 | 18 | 270 | 4.8 | 11.3 | 0.00 | 0.00 | 0.00 | 31 | 997.6 |
| 20260506155149 | 18 | 67 | 11.3 | 14.5 | 0.00 | 0.00 | 0.00 | 32 | 997.8 |
| 20260506154720 | 18 | 315 | 8.0 | 19.3 | 0.00 | 0.00 | 0.00 | 32 | 997.7 |
| 20260506154648 | 18 | 315 | 8.0 | 19.3 | 0.00 | 0.00 | 0.00 | 32 | 997.7 |
| 20260506154223 | 18 | 67 | 9.7 | 19.3 | 0.00 | 0.00 | 0.00 | 27 | 997.8 |
| 20260506154145 | 18 | 67 | 9.7 | 19.3 | 0.00 | 0.00 | 0.00 | 27 | 997.8 |
| 20260506153643 | 19 | 78 | 3.2 | 17.7 | 0.00 | 0.00 | 0.00 | 26 | 997.7 |
| 20260506153140 | 20 | 67 | 11.3 | 14.5 | 0.00 | 0.00 | 0.00 | 26 | 997.7 |
| 20260506152711 | 20 | 135 | 11.3 | 17.7 | 0.00 | 0.00 | 0.00 | 26 | 997.7 |
| 20260506152639 | 20 | 135 | 11.3 | 17.7 | 0.00 | 0.00 | 0.00 | 26 | 997.7 |
| 20260506152136 | 20 | 247 | 3.2 | 16.1 | 0.00 | 0.00 | 0.00 | 27 | 997.8 |
| 20260506151634 | 20 | 225 | 6.4 | 8.0 | 0.00 | 0.00 | 0.00 | 27 | 997.8 |
| 20260506151222 | 19 | 101 | 12.9 | 12.9 | 0.00 | 0.00 | 0.00 | 28 | 997.9 |
| 20260506151132 | 19 | 101 | 12.9 | 12.9 | 0.00 | 0.00 | 0.00 | 28 | 997.9 |
| 20260506150630 | 19 | 67 | 4.8 | 16.1 | 0.00 | 0.00 | 0.00 | 26 | 998.1 |
| 20260506150127 | 20 | 0 | 6.4 | 12.9 | 0.00 | 0.00 | 0.00 | 25 | 998.0 |
| 20260506145626 | 20 | 337 | 8.0 | 14.5 | 0.00 | 0.00 | 0.00 | 25 | 998.2 |
| 20260506145123 | 20 | 270 | 9.7 | 9.7 | 0.00 | 0.00 | 0.00 | 27 | 998.2 |
| 20260506144621 | 20 | 112 | 11.3 | 12.9 | 0.00 | 0.00 | 0.00 | 27 | 998.3 |
| 20260506144119 | 20 | 315 | 11.3 | 16.1 | 0.00 | 0.00 | 0.00 | 27 | 998.3 |
| 20260506143617 | 20 | 0 | 6.4 | 14.5 | 0.00 | 0.00 | 0.00 | 26 | 998.5 |
| 20260506143114 | 20 | 112 | 8.0 | 12.9 | 0.00 | 0.00 | 0.00 | 27 | 998.5 |
| 20260506142653 | 20 | 0 | 14.5 | 20.9 | 0.00 | 0.00 | 0.00 | 26 | 998.5 |
| 20260506142613 | 20 | 0 | 14.5 | 20.9 | 0.00 | 0.00 | 0.00 | 26 | 998.5 |
| 20260506142110 | 19 | 101 | 4.8 | 8.0 | 0.00 | 0.00 | 0.00 | 27 | 998.6 |
| 20260506141608 | 19 | 0 | 14.5 | 14.5 | 0.00 | 0.00 | 0.00 | 26 | 998.7 |
| 20260506141106 | 19 | 67 | 11.3 | 16.1 | 0.00 | 0.00 | 0.00 | 28 | 998.8 |
| 20260506140636 | 19 | 101 | 4.8 | 14.5 | 0.00 | 0.00 | 0.00 | 28 | 998.8 |
| 20260506140604 | 19 | 101 | 4.8 | 14.5 | 0.00 | 0.00 | 0.00 | 28 | 998.8 |
| 20260506140206 | 19 | 112 | 3.2 | 20.9 | 0.00 | 0.00 | 0.00 | 30 | 998.8 |
| 20260506135631 | 20 | 56 | 14.5 | 14.5 | 0.00 | 0.00 | 0.00 | 26 | 998.8 |
| 20260506135600 | 20 | 56 | 14.5 | 14.5 | 0.00 | 0.00 | 0.00 | 26 | 998.8 |
| 20260506135128 | 19 | 326 | 3.2 | 9.7 | 0.00 | 0.00 | 0.00 | 28 | 999.0 |
| 20260506135057 | 19 | 326 | 3.2 | 9.7 | 0.00 | 0.00 | 0.00 | 28 | 999.0 |
| 20260506134643 | 19 | 281 | 11.3 | 11.3 | 0.00 | 0.00 | 0.00 | 27 | 998.8 |
| 20260506134555 | 19 | 281 | 11.3 | 11.3 | 0.00 | 0.00 | 0.00 | 27 | 998.8 |
| 20260506134053 | 19 | 270 | 1.6 | 14.5 | 0.00 | 0.00 | 0.00 | 25 | 999.0 |
| 20260506133623 | 19 | 270 | 4.8 | 11.3 | 0.00 | 0.00 | 0.00 | 25 | 999.0 |
| 20260506133551 | 19 | 270 | 4.8 | 11.3 | 0.00 | 0.00 | 0.00 | 25 | 999.0 |
| 20260506133048 | 19 | 270 | 4.8 | 11.3 | 0.00 | 0.00 | 0.00 | 26 | 999.0 |
| 20260506132620 | 18 | 90 | 1.6 | 14.5 | 0.00 | 0.00 | 0.00 | 27 | 999.2 |
| 20260506132547 | 18 | 90 | 1.6 | 14.5 | 0.00 | 0.00 | 0.00 | 27 | 999.2 |
| 20260506132117 | 18 | 90 | 4.8 | 11.3 | 0.00 | 0.00 | 0.00 | 29 | 999.2 |
| 20260506132044 | 18 | 90 | 4.8 | 11.3 | 0.00 | 0.00 | 0.00 | 29 | 999.2 |
| 20260506131625 | 17 | 292 | 0.0 | 0.0 | 0.00 | 0.00 | 0.00 | 28 | 999.3 |
| 20260506131542 | 17 | 292 | 0.0 | 0.0 | 0.00 | 0.00 | 0.00 | 28 | 999.3 |
| 20260506131114 | 17 | 315 | 0.0 | 0.0 | 0.00 | 0.00 | 0.00 | 30 | 999.3 |
| 20260506131039 | 17 | 315 | 0.0 | 0.0 | 0.00 | 0.00 | 0.00 | 30 | 999.3 |
| 20260506130538 | 17 | 78 | 0.0 | 0.0 | 0.00 | 0.00 | 0.00 | 30 | 999.5 |
| 20260506130117 | 17 | 45 | 0.0 | 0.0 | 0.00 | 0.00 | 0.00 | 28 | 999.5 |
| 20260506130035 | 17 | 45 | 0.0 | 0.0 | 0.00 | 0.00 | 0.00 | 28 | 999.5 |
| 20260506125621 | 17 | 90 | 0.0 | 0.0 | 0.00 | 0.00 | 0.00 | 28 | 999.7 |
| 20260506125534 | 17 | 90 | 0.0 | 0.0 | 0.00 | 0.00 | 0.00 | 28 | 999.7 |
| 20260506125114 | 17 | 292 | 0.0 | 0.0 | 0.00 | 0.00 | 0.00 | 28 | 999.6 |
| 20260506125031 | 17 | 292 | 0.0 | 0.0 | 0.00 | 0.00 | 0.00 | 28 | 999.6 |
| 20260506124617 | 17 | 90 | 0.0 | 0.0 | 0.00 | 0.00 | 0.00 | 27 | 999.8 |
| 20260506124529 | 17 | 90 | 0.0 | 0.0 | 0.00 | 0.00 | 0.00 | 27 | 999.8 |
| 20260506124112 | 17 | 112 | 0.0 | 0.0 | 0.00 | 0.00 | 0.00 | 28 | 999.8 |
| 20260506124026 | 17 | 112 | 0.0 | 0.0 | 0.00 | 0.00 | 0.00 | 28 | 999.8 |
| 20260506123525 | 17 | 270 | 0.0 | 0.0 | 0.00 | 0.00 | 0.00 | 28 | 999.6 |
| 20260506123022 | 17 | 67 | 0.0 | 0.0 | 0.00 | 0.00 | 0.00 | 28 | 999.9 |
| 20260506122554 | 17 | 90 | 4.8 | 4.8 | 0.00 | 0.00 | 0.00 | 26 | 1000.0 |
| 20260506122520 | 17 | 90 | 4.8 | 4.8 | 0.00 | 0.00 | 0.00 | 26 | 1000.0 |
| 20260506122115 | 17 | 90 | 0.0 | 0.0 | 0.00 | 0.00 | 0.00 | 27 | 999.8 |
| 20260506122018 | 17 | 90 | 0.0 | 0.0 | 0.00 | 0.00 | 0.00 | 27 | 999.8 |
| 20260506121602 | 17 | 67 | 0.0 | 0.0 | 0.00 | 0.00 | 0.00 | 28 | 999.9 |
| 20260506121516 | 17 | 67 | 0.0 | 0.0 | 0.00 | 0.00 | 0.00 | 28 | 999.9 |
| 20260506121117 | 17 | 90 | 0.0 | 0.0 | 0.00 | 0.00 | 0.00 | 29 | 1000.0 |
| 20260506121014 | 17 | 90 | 0.0 | 0.0 | 0.00 | 0.00 | 0.00 | 29 | 1000.0 |
| 20260506120512 | 17 | 90 | 0.0 | 0.0 | 0.00 | 0.00 | 0.00 | 28 | 1000.0 |
| 20260506120124 | 17 | 45 | 0.0 | 0.0 | 0.00 | 0.00 | 0.00 | 30 | 1000.0 |
| 20260506120009 | 17 | 45 | 0.0 | 0.0 | 0.00 | 0.00 | 0.00 | 30 | 1000.0 |
| 20260506115507 | 17 | 0 | 0.0 | 0.0 | 0.00 | 0.00 | 0.00 | 30 | 1000.0 |
| 20260506115044 | 17 | 67 | 0.0 | 0.0 | 0.00 | 0.00 | 0.00 | 28 | 1000.3 |
| 20260506115005 | 17 | 67 | 0.0 | 0.0 | 0.00 | 0.00 | 0.00 | 28 | 1000.3 |
| 20260506114543 | 17 | 90 | 0.0 | 1.6 | 0.00 | 0.00 | 0.00 | 30 | 1000.3 |
| 20260506114503 | 17 | 90 | 0.0 | 1.6 | 0.00 | 0.00 | 0.00 | 30 | 1000.3 |
| 20260506114001 | 17 | 135 | 0.0 | 14.5 | 0.00 | 0.00 | 0.00 | 30 | 1000.3 |
| 20260506113459 | 17 | 45 | 6.4 | 6.4 | 0.00 | 0.00 | 0.00 | 32 | 1000.4 |
| 20260506113028 | 17 | 45 | 0.0 | 6.4 | 0.00 | 0.00 | 0.00 | 32 | 1000.3 |
| 20260506112956 | 17 | 45 | 0.0 | 6.4 | 0.00 | 0.00 | 0.00 | 32 | 1000.3 |
| 20260506112530 | 17 | 101 | 0.0 | 0.0 | 0.00 | 0.00 | 0.00 | 33 | 1000.5 |
| 20260506112454 | 17 | 101 | 0.0 | 0.0 | 0.00 | 0.00 | 0.00 | 33 | 1000.5 |
| 20260506112024 | 17 | 56 | 0.0 | 0.0 | 0.00 | 0.00 | 0.00 | 33 | 1000.5 |
| 20260506111952 | 17 | 56 | 0.0 | 0.0 | 0.00 | 0.00 | 0.00 | 33 | 1000.5 |
| 20260506111540 | 17 | 45 | 0.0 | 1.6 | 0.00 | 0.00 | 0.00 | 34 | 1000.5 |
| 20260506111450 | 17 | 45 | 0.0 | 1.6 | 0.00 | 0.00 | 0.00 | 34 | 1000.5 |
| 20260506110948 | 17 | 45 | 0.0 | 1.6 | 0.00 | 0.00 | 0.00 | 36 | 1000.5 |
| 20260506110523 | 16 | 45 | 0.0 | 1.6 | 0.00 | 0.00 | 0.00 | 35 | 1000.4 |
| 20260506110446 | 16 | 45 | 0.0 | 1.6 | 0.00 | 0.00 | 0.00 | 35 | 1000.4 |
| 20260506105943 | 16 | 90 | 0.0 | 12.9 | 0.00 | 0.00 | 0.00 | 35 | 1000.7 |
| 20260506105441 | 17 | 67 | 3.2 | 16.1 | 0.00 | 0.00 | 0.00 | 35 | 1000.6 |
| 20260506103934 | 16 | 56 | 0.0 | 0.0 | 0.00 | 0.00 | 0.00 | 38 | 1000.8 |
| 20260506103432 | 16 | 270 | 0.0 | 0.0 | 0.00 | 0.00 | 0.00 | 40 | 1000.7 |
| 20260506103009 | 16 | 67 | 0.0 | 0.0 | 0.00 | 0.00 | 0.00 | 40 | 1000.8 |
| 20260506102930 | 16 | 67 | 0.0 | 0.0 | 0.00 | 0.00 | 0.00 | 40 | 1000.8 |
| 20260506102428 | 16 | 78 | 0.0 | 0.0 | 0.00 | 0.00 | 0.00 | 41 | 1000.7 |
| 20260506101959 | 16 | 45 | 0.0 | 0.0 | 0.00 | 0.00 | 0.00 | 40 | 1000.9 |
| 20260506101925 | 16 | 45 | 0.0 | 0.0 | 0.00 | 0.00 | 0.00 | 40 | 1000.9 |
| 20260506101527 | 16 | 90 | 0.0 | 0.0 | 0.00 | 0.00 | 0.00 | 42 | 1000.9 |
| 20260506101425 | 16 | 90 | 0.0 | 0.0 | 0.00 | 0.00 | 0.00 | 42 | 1000.9 |
| 20260506100921 | 15 | 67 | 0.0 | 0.0 | 0.00 | 0.00 | 0.00 | 44 | 1000.9 |
| 20260506100452 | 15 | 270 | 0.0 | 0.0 | 0.00 | 0.00 | 0.00 | 44 | 1001.0 |
| 20260506100420 | 15 | 270 | 0.0 | 0.0 | 0.00 | 0.00 | 0.00 | 44 | 1001.0 |
| 20260506100026 | 15 | 45 | 0.0 | 0.0 | 0.00 | 0.00 | 0.00 | 45 | 1000.9 |
| 20260506095917 | 15 | 45 | 0.0 | 0.0 | 0.00 | 0.00 | 0.00 | 45 | 1000.9 |
| 20260506095453 | 15 | 67 | 0.0 | 0.0 | 0.00 | 0.00 | 0.00 | 47 | 1001.0 |
| 20260506095415 | 15 | 67 | 0.0 | 0.0 | 0.00 | 0.00 | 0.00 | 47 | 1001.0 |
| 20260506094943 | 15 | 90 | 0.0 | 0.0 | 0.00 | 0.00 | 0.00 | 46 | 1000.9 |
| 20260506094912 | 15 | 90 | 0.0 | 0.0 | 0.00 | 0.00 | 0.00 | 46 | 1000.9 |
| 20260506094509 | 15 | 135 | 0.0 | 0.0 | 0.00 | 0.00 | 0.00 | 50 | 1001.1 |
| 20260506094411 | 15 | 135 | 0.0 | 0.0 | 0.00 | 0.00 | 0.00 | 50 | 1001.1 |
| 20260506093944 | 15 | 0 | 0.0 | 0.0 | 0.00 | 0.00 | 0.00 | 51 | 1000.9 |
| 20260506093908 | 15 | 0 | 0.0 | 0.0 | 0.00 | 0.00 | 0.00 | 51 | 1000.9 |
| 20260506093406 | 15 | 56 | 0.0 | 0.0 | 0.00 | 0.00 | 0.00 | 53 | 1001.1 |
| 20260506092904 | 15 | 90 | 0.0 | 0.0 | 0.00 | 0.00 | 0.00 | 53 | 1001.0 |
| 20260506092434 | 15 | 90 | 0.0 | 0.0 | 0.00 | 0.00 | 0.00 | 54 | 1001.1 |
| 20260506092403 | 15 | 90 | 0.0 | 0.0 | 0.00 | 0.00 | 0.00 | 54 | 1001.1 |
| 20260506091859 | 14 | 0 | 0.0 | 0.0 | 0.00 | 0.00 | 0.00 | 56 | 1001.2 |
| 20260506091459 | 14 | 135 | 0.0 | 0.0 | 0.00 | 0.00 | 0.00 | 56 | 1001.4 |
| 20260506091358 | 14 | 135 | 0.0 | 0.0 | 0.00 | 0.00 | 0.00 | 56 | 1001.4 |
| 20260506090855 | 14 | 157 | 0.0 | 0.0 | 0.00 | 0.00 | 0.00 | 59 | 1001.1 |
| 20260506090353 | 13 | 146 | 0.0 | 0.0 | 0.00 | 0.00 | 0.00 | 59 | 1001.2 |
| 20260506085851 | 13 | 56 | 0.0 | 0.0 | 0.00 | 0.00 | 0.00 | 58 | 1001.2 |
| 20260506085349 | 13 | 135 | 0.0 | 0.0 | 0.00 | 0.00 | 0.00 | 59 | 1001.0 |
| 20260506084846 | 13 | 45 | 0.0 | 0.0 | 0.00 | 0.00 | 0.00 | 59 | 1001.2 |
| 20260506084430 | 13 | 90 | 0.0 | 0.0 | 0.00 | 0.00 | 0.00 | 59 | 1001.4 |
| 20260506084345 | 13 | 90 | 0.0 | 0.0 | 0.00 | 0.00 | 0.00 | 59 | 1001.4 |
| 20260506083842 | 13 | 22 | 0.0 | 4.8 | 0.00 | 0.00 | 0.00 | 59 | 1001.3 |
| 20260506083341 | 13 | 56 | 0.0 | 0.0 | 0.00 | 0.00 | 0.00 | 60 | 1001.4 |
| 20260506082924 | 13 | 45 | 0.0 | 0.0 | 0.00 | 0.00 | 0.00 | 59 | 1001.2 |
| 20260506082838 | 13 | 45 | 0.0 | 0.0 | 0.00 | 0.00 | 0.00 | 59 | 1001.2 |
| 20260506082336 | 13 | 90 | 0.0 | 0.0 | 0.00 | 0.00 | 0.00 | 62 | 1001.4 |
| 20260506081952 | 12 | 90 | 0.0 | 0.0 | 0.00 | 0.00 | 0.00 | 62 | 1001.4 |
| 20260506081449 | 12 | 225 | 0.0 | 9.7 | 0.00 | 0.00 | 0.00 | 62 | 1001.6 |
| 20260506081022 | 12 | 56 | 0.0 | 0.0 | 0.00 | 0.00 | 0.00 | 62 | 1001.5 |
| 20260506080949 | 12 | 56 | 0.0 | 0.0 | 0.00 | 0.00 | 0.00 | 62 | 1001.5 |
| 20260506080445 | 12 | 101 | 0.0 | 0.0 | 0.00 | 0.00 | 0.00 | 62 | 1001.5 |
| 20260506073433 | 12 | 22 | 0.0 | 0.0 | 0.00 | 0.00 | 0.00 | 62 | 1001.3 |
| 20260506072930 | 12 | 78 | 0.0 | 0.0 | 0.00 | 0.00 | 0.00 | 62 | 1001.5 |
| 20260506072002 | 13 | 78 | 0.0 | 0.0 | 0.00 | 0.00 | 0.00 | 59 | 1001.5 |
| 20260506071926 | 13 | 78 | 0.0 | 0.0 | 0.00 | 0.00 | 0.00 | 59 | 1001.5 |
| 20260506071516 | 14 | 90 | 0.0 | 0.0 | 0.00 | 0.00 | 0.00 | 66 | 1001.5 |
| 20260506071424 | 14 | 90 | 0.0 | 0.0 | 0.00 | 0.00 | 0.00 | 66 | 1001.5 |
| 20260506070921 | 13 | 135 | 0.0 | 0.0 | 0.00 | 0.00 | 0.00 | 67 | 1001.6 |
| 20260506070418 | 13 | 180 | 0.0 | 0.0 | 0.00 | 0.00 | 0.00 | 68 | 1001.6 |
| 20260506062402 | 9 | 180 | 0.0 | 1.6 | 0.00 | 0.00 | 0.00 | 78 | 1001.6 |
| 20260506061933 | 8 | 180 | 0.0 | 1.6 | 0.00 | 0.00 | 0.00 | 78 | 1001.4 |
| 20260506061859 | 8 | 180 | 0.0 | 1.6 | 0.00 | 0.00 | 0.00 | 78 | 1001.4 |
| 20260506061432 | 8 | 90 | 0.0 | 0.0 | 0.00 | 0.00 | 0.00 | 80 | 1001.5 |
| 20260506061357 | 8 | 90 | 0.0 | 0.0 | 0.00 | 0.00 | 0.00 | 80 | 1001.5 |
| 20260506060936 | 7 | 90 | 0.0 | 0.0 | 0.00 | 0.00 | 0.00 | 80 | 1001.4 |
| 20260506060855 | 7 | 90 | 0.0 | 0.0 | 0.00 | 0.00 | 0.00 | 80 | 1001.4 |
| 20260506060352 | 7 | 180 | 0.0 | 1.6 | 0.00 | 0.00 | 0.00 | 80 | 1001.4 |